�N����,����,�~����,�C��,���x,�C��,����,���ϕ���,�ő�u�ԕ���,�ő厞����,���˗�,�I�_���x,�n�����x,�ő啗���N��,DTYPE
"20/11/23","00:10",0.0,13.9,93.4,1011.6,21.6,0.7,1.7,72.1,0.00,12.9,14.6,"00:02:12",1
"20/11/23","00:20",0.0,13.8,93.6,1011.2,318.4,0.6,1.1,238.8,0.00,12.8,14.6,"00:18:46",1
"20/11/23","00:30",0.0,13.6,93.7,1011.6,245.6,0.3,1.1,233.9,0.00,12.6,14.5,"00:20:48",1
"20/11/23","00:40",0.0,13.6,93.8,1010.9,323.8,0.7,1.2,344.4,0.00,12.7,14.3,"00:39:20",1
"20/11/23","00:50",0.2,13.5,94.0,1011.2,333.0,1.1,1.3,341.8,0.00,12.6,14.4,"00:41:10",1
"20/11/23","01:00",0.0,13.5,94.1,1010.9,309.4,0.7,1.1,334.8,0.00,12.6,14.5,"00:56:10",1
"20/11/23","01:10",0.0,13.6,94.2,1010.9,354.4,0.8,1.2,329.5,0.00,12.7,14.5,"01:03:46",1
"20/11/23","01:20",0.0,13.6,94.2,1010.9,344.5,0.3,1.0,4.8,0.00,12.7,14.6,"01:12:34",1
"20/11/23","01:30",0.0,13.6,94.3,1011.2,304.9,1.0,1.4,313.0,0.00,12.7,14.6,"01:25:04",1
"20/11/23","01:40",0.0,13.5,94.4,1011.2,317.1,1.0,1.6,327.9,0.00,12.7,14.7,"01:37:24",1
"20/11/23","01:50",0.0,13.4,94.5,1011.2,301.7,1.0,1.7,318.9,0.00,12.6,14.7,"01:45:46",1
"20/11/23","02:00",0.0,13.3,94.6,1011.2,303.0,1.1,2.0,325.9,0.00,12.5,14.5,"01:50:36",1
"20/11/23","02:10",0.0,13.2,94.7,1011.2,309.1,0.8,1.7,338.2,0.00,12.4,14.6,"02:09:04",1
"20/11/23","02:20",0.0,13.2,94.8,1011.6,314.1,1.0,2.2,330.4,0.00,12.4,14.5,"02:15:16",1
"20/11/23","02:30",0.0,13.2,94.9,1011.9,316.6,1.0,1.8,342.2,0.00,12.4,14.3,"02:29:50",1
"20/11/23","02:40",0.0,13.2,95.0,1011.9,318.4,1.1,2.2,318.9,0.00,12.5,14.5,"02:35:14",1
"20/11/23","02:50",0.0,13.3,95.1,1011.6,316.2,1.3,2.0,331.2,0.00,12.6,14.3,"02:48:14",1
"20/11/23","03:00",0.0,13.3,95.2,1011.4,332.3,1.3,2.4,328.8,0.00,12.6,14.4,"02:50:10",1
"20/11/23","03:10",0.0,13.4,95.3,1011.4,334.1,1.2,2.0,332.0,0.00,12.7,14.4,"03:00:02",1
"20/11/23","03:20",0.0,13.4,95.3,1011.2,328.6,1.3,2.2,342.0,0.00,12.7,14.5,"03:11:00",1
"20/11/23","03:30",0.0,13.4,95.4,1011.6,316.5,0.8,1.3,325.5,0.00,12.7,14.7,"03:21:34",1
"20/11/23","03:40",0.0,13.3,95.5,1011.4,244.5,0.5,1.1,241.4,0.00,12.6,14.5,"03:37:28",1
"20/11/23","03:50",0.0,13.3,95.5,1011.6,334.5,0.5,1.3,321.7,0.00,12.6,14.4,"03:40:02",1
"20/11/23","04:00",0.0,13.4,95.6,1011.4,323.4,0.7,1.8,325.3,0.00,12.8,14.4,"03:50:08",1
"20/11/23","04:10",0.0,13.3,95.6,1011.4,302.8,0.6,1.4,262.2,0.00,12.7,14.4,"04:06:08",1
"20/11/23","04:20",0.0,13.5,95.7,1011.4,307.8,1.1,2.1,268.7,0.00,12.9,14.4,"04:10:48",1
"20/11/23","04:30",0.0,13.5,95.7,1011.4,348.9,1.0,2.0,113.7,0.00,12.9,14.6,"04:21:44",1
"20/11/23","04:40",0.0,13.4,95.8,1011.6,318.9,0.8,1.4,241.0,0.00,12.8,14.4,"04:33:14",1
"20/11/23","04:50",0.0,13.4,95.8,1011.6,324.4,0.8,1.6,341.0,0.00,12.8,14.4,"04:44:18",1
"20/11/23","05:00",0.0,13.3,95.9,1011.9,307.8,0.8,1.7,331.2,0.00,12.7,14.6,"04:52:34",1
"20/11/23","05:10",0.0,13.3,95.9,1011.6,300.5,1.0,1.8,334.3,0.00,12.7,14.3,"05:03:42",1
"20/11/23","05:20",0.0,13.1,96.0,1011.4,302.9,0.8,2.1,323.3,0.00,12.5,14.3,"05:15:06",1
"20/11/23","05:30",0.0,12.9,96.0,1011.6,286.5,0.7,1.7,336.6,0.00,12.3,14.4,"05:22:10",1
"20/11/23","05:40",0.0,12.9,96.1,1011.4,283.8,1.3,2.5,285.0,0.00,12.3,14.4,"05:35:28",1
"20/11/23","05:50",0.0,13.1,95.7,1012.3,263.4,1.3,3.4,218.5,0.00,12.5,14.5,"05:43:12",1
"20/11/23","06:00",0.0,13.1,95.7,1011.6,267.6,1.6,3.3,240.3,0.00,12.5,14.4,"05:55:42",1
"20/11/23","06:10",0.0,13.1,95.4,1012.1,267.6,1.5,2.5,224.7,0.00,12.4,14.5,"06:07:12",1
"20/11/23","06:20",0.0,13.0,95.2,1012.1,265.1,1.6,3.5,239.8,0.00,12.3,14.2,"06:14:16",1
"20/11/23","06:30",0.0,12.8,94.8,1012.1,267.6,1.6,3.6,250.2,0.00,12.0,14.1,"06:26:34",1
"20/11/23","06:40",0.0,12.9,94.6,1012.3,261.8,2.0,4.2,332.8,0.00,12.1,14.2,"06:39:52",1
"20/11/23","06:50",0.0,12.8,94.1,1012.6,264.6,1.8,4.0,228.1,0.00,11.9,14.2,"06:49:36",1
"20/11/23","07:00",0.0,12.9,93.8,1012.6,265.0,1.7,3.7,238.9,0.00,12.0,14.2,"06:51:20",1
"20/11/23","07:10",0.0,13.0,93.4,1012.8,274.0,1.3,3.3,227.5,0.00,12.0,14.1,"07:03:28",1
"20/11/23","07:20",0.0,13.0,92.9,1013.0,270.5,1.3,2.7,265.1,0.00,11.9,14.0,"07:11:28",1
"20/11/23","07:30",0.0,13.2,92.6,1013.0,281.8,1.3,3.2,249.7,0.01,12.1,14.1,"07:27:52",1
"20/11/23","07:40",0.0,13.6,91.8,1013.5,284.3,1.7,4.4,306.4,0.05,12.3,14.1,"07:39:32",1
"20/11/23","07:50",0.0,14.2,91.2,1013.3,286.6,2.1,4.4,257.3,0.10,12.8,14.2,"07:45:46",1
"20/11/23","08:00",0.0,14.4,90.1,1013.5,298.9,2.2,4.8,337.9,0.11,12.8,14.3,"07:58:08",1
"20/11/23","08:10",0.0,14.1,89.3,1013.8,304.1,2.6,5.0,342.0,0.06,12.4,14.3,"08:08:32",1
"20/11/23","08:20",0.0,14.1,88.9,1013.8,293.3,2.1,3.7,324.8,0.05,12.3,14.2,"08:11:52",1
"20/11/23","08:30",0.0,13.8,88.6,1013.5,317.7,2.5,4.3,338.3,0.02,12.0,14.4,"08:24:24",1
"20/11/23","08:40",0.0,13.7,88.5,1013.8,320.2,2.2,3.3,332.9,0.04,11.9,14.2,"08:39:20",1
"20/11/23","08:50",0.0,14.1,88.7,1013.8,317.1,2.2,4.1,340.8,0.10,12.3,14.3,"08:43:52",1
"20/11/23","09:00",0.0,14.6,87.6,1013.5,315.2,2.2,3.7,346.5,0.16,12.6,14.7,"08:57:20",1
"20/11/23","09:10",0.0,15.1,86.5,1013.8,334.3,2.1,4.7,329.9,0.15,12.9,14.6,"09:01:28",1
"20/11/23","09:20",0.0,15.6,83.9,1014.0,347.2,2.2,4.4,322.8,0.29,12.9,14.7,"09:10:56",1
"20/11/23","09:30",0.0,15.5,80.6,1014.5,333.8,2.1,4.4,333.2,0.11,12.2,14.7,"09:25:12",1
"20/11/23","09:40",0.0,15.0,79.0,1014.2,333.4,2.3,4.8,333.3,0.09,11.4,14.8,"09:33:52",1
"20/11/23","09:50",0.0,15.5,78.8,1014.2,329.5,2.2,4.4,342.7,0.25,11.9,14.8,"09:48:00",1
"20/11/23","10:00",0.0,16.5,76.6,1014.5,301.7,2.0,5.7,342.0,0.44,12.4,15.0,"09:58:08",1
"20/11/23","10:10",0.0,16.3,73.3,1014.7,330.3,2.7,7.2,325.3,0.32,11.6,15.0,"10:06:32",1
"20/11/23","10:20",0.0,16.5,73.3,1014.0,337.5,2.2,5.1,338.9,0.38,11.8,15.2,"10:15:52",1
"20/11/23","10:30",0.0,16.1,73.1,1014.2,318.3,1.8,3.7,301.4,0.13,11.3,15.3,"10:23:20",1
"20/11/23","10:40",0.0,15.4,73.1,1014.0,333.2,2.2,4.8,347.3,0.11,10.7,15.2,"10:37:20",1
"20/11/23","10:50",0.0,15.4,73.5,1014.0,329.2,1.8,4.9,331.7,0.12,10.7,15.3,"10:44:24",1
"20/11/23","11:00",0.0,15.1,73.2,1014.0,336.8,2.3,4.7,351.4,0.09,10.4,15.3,"10:51:20",1
"20/11/23","11:10",0.0,15.0,73.7,1013.8,340.5,2.5,4.7,348.1,0.07,10.4,15.4,"11:01:12",1
"20/11/23","11:20",0.0,14.5,75.8,1013.8,337.1,2.5,5.4,312.2,0.09,10.3,15.2,"11:12:16",1
"20/11/23","11:30",0.0,14.3,77.6,1013.8,324.6,2.0,3.5,335.6,0.08,10.5,15.2,"11:25:52",1
"20/11/23","11:40",0.0,14.5,77.7,1013.8,332.6,2.5,6.0,328.1,0.18,10.7,15.2,"11:38:00",1
"20/11/23","11:50",0.0,14.8,76.3,1013.8,337.5,2.7,4.7,340.0,0.20,10.7,15.1,"11:48:56",1
"20/11/23","12:00",0.0,15.2,74.7,1013.8,344.7,2.3,5.2,303.9,0.27,10.8,15.2,"11:56:16",1
"20/11/23","12:10",0.0,15.3,73.6,1013.8,326.2,2.0,3.9,306.5,0.18,10.7,15.1,"12:09:20",1
"20/11/23","12:20",0.0,15.5,71.9,1014.0,329.2,2.1,5.2,338.7,0.19,10.5,15.5,"12:10:24",1
"20/11/23","12:30",0.0,15.5,70.9,1014.0,325.8,2.5,6.4,339.0,0.22,10.3,15.5,"12:21:52",1
"20/11/23","12:40",0.0,15.7,70.2,1013.8,346.3,2.6,6.0,15.4,0.29,10.3,15.6,"12:30:56",1
"20/11/23","12:50",0.0,15.4,69.9,1014.0,345.6,3.5,9.6,324.9,0.24,10.0,15.4,"12:49:36",1
"20/11/23","13:00",0.0,15.1,70.5,1014.0,337.8,2.6,6.8,319.3,0.13,9.8,15.5,"12:50:16",1
"20/11/23","13:10",0.0,14.9,71.0,1013.5,334.6,2.6,5.7,315.7,0.11,9.7,15.5,"13:05:12",1
"20/11/23","13:20",0.0,14.8,71.2,1013.8,333.7,2.1,4.7,342.5,0.09,9.7,15.5,"13:16:16",1
"20/11/23","13:30",0.0,14.7,71.5,1013.8,323.3,3.1,5.8,329.8,0.12,9.6,15.4,"13:20:56",1
"20/11/23","13:40",0.0,14.7,71.4,1013.3,329.3,3.0,6.6,332.7,0.13,9.6,15.3,"13:32:56",1
"20/11/23","13:50",0.0,14.8,71.2,1013.5,318.9,2.7,5.2,346.3,0.14,9.7,15.4,"13:49:04",1
"20/11/23","14:00",0.0,14.5,70.4,1013.8,327.6,3.2,5.5,335.0,0.07,9.2,15.7,"13:58:32",1
"20/11/23","14:10",0.0,14.2,71.0,1013.8,342.0,3.6,7.7,316.8,0.05,9.1,15.4,"14:04:00",1
"20/11/23","14:20",0.0,14.4,72.5,1013.5,337.8,4.5,8.5,334.2,0.20,9.6,15.3,"14:19:44",1
"20/11/23","14:30",0.0,14.9,71.5,1013.8,332.1,3.7,6.3,337.5,0.25,9.8,15.5,"14:25:28",1
"20/11/23","14:40",0.0,14.1,70.3,1013.8,337.5,5.1,10.0,328.3,0.16,8.8,15.4,"14:31:44",1
"20/11/23","14:50",0.0,13.9,71.1,1014.0,337.3,4.7,8.9,343.4,0.10,8.8,15.3,"14:43:52",1
"20/11/23","15:00",0.0,13.8,71.3,1014.2,333.2,4.6,8.9,341.0,0.09,8.7,15.2,"14:54:00",1
"20/11/23","15:10",0.0,14.0,71.8,1014.0,335.9,3.9,8.1,306.9,0.14,9.0,15.1,"15:04:24",1
"20/11/23","15:20",0.0,13.7,71.6,1014.5,342.4,3.7,6.6,339.2,0.09,8.7,15.1,"15:11:36",1
"20/11/23","15:30",0.0,13.6,72.1,1014.7,346.4,3.1,8.2,341.3,0.07,8.7,15.2,"15:20:40",1
"20/11/23","15:40",0.0,13.5,72.3,1014.7,339.0,3.4,8.6,348.8,0.06,8.7,15.1,"15:34:40",1
"20/11/23","15:50",0.0,13.5,72.8,1014.9,333.0,3.0,4.9,329.9,0.06,8.8,15.0,"15:45:28",1
"20/11/23","16:00",0.0,13.3,73.0,1014.9,340.8,3.2,5.9,351.8,0.04,8.6,15.1,"15:51:20",1
"20/11/23","16:10",0.0,13.2,73.2,1015.2,337.7,3.0,6.8,340.2,0.03,8.6,14.9,"16:03:44",1
"20/11/23","16:20",0.0,12.9,73.6,1015.2,336.3,2.7,4.9,335.0,0.00,8.3,14.9,"16:12:32",1
"20/11/23","16:30",0.0,12.7,74.4,1015.4,324.4,2.1,4.4,345.0,0.00,8.3,14.8,"16:27:28",1
"20/11/23","16:40",0.0,12.4,75.0,1015.4,337.1,2.1,5.2,325.2,0.00,8.1,14.8,"16:39:42",1
"20/11/23","16:50",0.0,12.4,75.2,1015.4,328.6,2.2,4.4,341.1,0.00,8.2,14.8,"16:46:10",1
"20/11/23","17:00",0.0,12.2,75.8,1014.9,332.6,2.2,3.7,339.6,0.00,8.1,14.6,"16:51:24",1
"20/11/23","17:10",0.0,12.0,76.6,1015.4,327.5,2.5,3.6,330.5,0.00,8.1,14.7,"17:09:44",1
"20/11/23","17:20",0.0,11.9,77.0,1015.4,329.1,2.6,5.2,343.6,0.00,8.0,14.6,"17:18:44",1
"20/11/23","17:30",0.0,11.8,77.4,1015.6,327.0,2.2,4.0,344.7,0.00,8.0,14.5,"17:28:42",1
"20/11/23","17:40",0.0,11.6,78.0,1015.9,326.6,2.2,3.3,341.8,0.00,7.9,14.4,"17:39:04",1
"20/11/23","17:50",0.0,11.4,78.4,1016.1,321.0,2.3,4.4,340.2,0.00,7.8,14.4,"17:41:20",1
"20/11/23","18:00",0.0,11.1,79.0,1015.9,316.1,1.7,2.4,348.6,0.00,7.6,14.3,"17:51:52",1
"20/11/23","18:10",0.0,10.8,79.9,1016.1,329.4,1.7,2.6,313.2,0.00,7.5,14.1,"18:03:44",1
"20/11/23","18:20",0.0,10.6,80.8,1016.4,327.8,1.6,2.2,333.7,0.00,7.5,14.1,"18:13:52",1
"20/11/23","18:30",0.0,10.2,81.6,1016.6,318.9,1.6,2.5,329.5,0.00,7.2,13.9,"18:26:00",1
"20/11/23","18:40",0.0,10.1,82.8,1016.8,336.0,1.6,2.1,352.5,0.00,7.4,14.0,"18:37:28",1
"20/11/23","18:50",0.0,9.9,83.6,1016.6,330.9,1.3,1.8,332.3,0.00,7.3,13.8,"18:43:28",1
"20/11/23","19:00",0.0,9.8,84.6,1016.8,319.9,1.5,2.4,334.9,0.00,7.4,14.0,"18:59:36",1
"20/11/23","19:10",0.0,10.1,85.3,1016.8,322.7,2.1,4.2,324.7,0.00,7.8,13.7,"19:09:12",1
"20/11/23","19:20",0.0,10.2,85.7,1017.1,323.6,2.1,3.1,326.6,0.00,8.0,13.7,"19:10:08",1
"20/11/23","19:30",0.0,10.3,86.0,1016.8,326.7,2.2,3.2,335.3,0.00,8.1,13.6,"19:27:52",1
"20/11/23","19:40",0.0,10.4,86.2,1017.1,334.9,2.2,4.8,337.4,0.00,8.2,13.6,"19:39:28",1
"20/11/23","19:50",0.0,10.5,86.1,1017.3,327.3,2.8,4.0,339.8,0.00,8.3,13.6,"19:48:00",1
"20/11/23","20:00",0.0,10.5,86.1,1017.5,326.1,2.8,4.3,331.5,0.00,8.3,13.6,"19:58:00",1
"20/11/23","20:10",0.0,10.3,86.1,1017.5,324.9,2.3,4.4,331.6,0.00,8.1,13.5,"20:05:12",1
"20/11/23","20:20",0.0,10.1,86.2,1017.3,327.0,2.5,4.1,329.8,0.00,7.9,13.6,"20:13:12",1
"20/11/23","20:30",0.0,10.0,86.4,1017.8,326.3,2.3,4.2,348.0,0.00,7.9,13.3,"20:26:48",1
"20/11/23","20:40",0.0,10.0,86.6,1017.5,317.6,2.3,3.3,337.1,0.00,7.9,13.4,"20:32:56",1
"20/11/23","20:50",0.0,9.9,86.8,1017.5,310.0,2.0,3.5,304.8,0.00,7.8,13.4,"20:48:40",1
"20/11/23","21:00",0.0,9.7,87.0,1017.5,324.4,1.8,2.9,333.3,0.00,7.7,13.3,"20:53:36",1
"20/11/23","21:10",0.0,9.5,87.3,1017.5,321.2,2.0,3.4,336.3,0.00,7.5,13.4,"21:02:16",1
"20/11/23","21:20",0.0,9.2,87.6,1017.3,326.4,1.7,2.8,330.7,0.00,7.3,13.3,"21:12:48",1
"20/11/23","21:30",0.0,8.9,88.2,1017.3,325.9,2.0,2.8,319.1,0.00,7.1,13.1,"21:22:40",1
"20/11/23","21:40",0.0,8.6,88.7,1017.3,320.5,2.1,3.3,324.1,0.00,6.9,13.1,"21:39:52",1
"20/11/23","21:50",0.0,8.6,89.2,1017.3,322.9,2.3,3.4,325.7,0.00,7.0,13.1,"21:41:04",1
"20/11/23","22:00",0.0,8.9,89.7,1017.3,324.1,2.7,4.3,331.0,0.00,7.3,13.1,"21:52:16",1
"20/11/23","22:10",0.0,8.8,90.1,1017.8,327.4,2.5,3.4,327.1,0.00,7.3,13.1,"22:00:32",1
"20/11/23","22:20",0.0,8.9,90.6,1018.2,319.4,2.8,4.8,326.0,0.00,7.5,13.1,"22:17:44",1
"20/11/23","22:30",0.0,8.9,90.7,1018.0,318.3,2.6,3.7,324.1,0.00,7.5,12.9,"22:22:00",1
"20/11/23","22:40",0.0,8.6,91.0,1018.0,321.3,2.0,2.9,325.0,0.00,7.3,13.0,"22:36:56",1
"20/11/23","22:50",0.0,8.7,91.3,1018.0,308.0,2.0,2.8,334.3,0.00,7.4,13.0,"22:40:48",1
"20/11/23","23:00",0.0,8.9,91.5,1018.0,319.2,2.8,5.5,335.0,0.00,7.6,12.9,"22:56:00",1
"20/11/23","23:10",0.0,9.1,91.5,1018.0,323.8,3.1,4.8,344.4,0.00,7.8,12.9,"23:08:46",1
"20/11/23","23:20",0.0,9.2,91.6,1018.2,327.6,2.5,4.3,335.1,0.00,7.9,13.0,"23:10:08",1
"20/11/23","23:30",0.0,9.1,91.6,1018.5,326.0,2.2,3.3,309.6,0.00,7.8,13.0,"23:29:20",1
"20/11/23","23:40",0.0,9.1,91.7,1018.2,325.7,2.1,3.4,326.9,0.00,7.9,12.7,"23:31:04",1
"20/11/23","23:50",0.0,9.1,91.8,1018.2,322.9,2.3,3.7,325.9,0.00,7.9,12.8,"23:40:02",1
"20/11/23","24:00",0.0,9.0,91.8,1018.5,317.1,2.7,4.0,330.6,0.00,7.8,12.9,"23:57:04",1
